loading
|
Showing default

RELAY 1 (A-15), 503

Orbit data source: Space-Track

RELAY 1 (A-15), 503 is a payload satellite owned by GSFC (US) in HEO that was launched on Thu, 13 Dec 1962 UTC via a THOR DELTA B launch vehicle from the Air Force Eastern Test Range (AFETR). Payloads include a variety of satellites, spacecraft, and rockets equipped with specific instruments for various scientific and technological missions. These include communications satellites like Starlink; space stations such as the ISS; scientific satellites like the Hubble; Earth observation satellites from companies like Planet Labs, Umbra, and HawkEye 360; GPS; miniature CubeSats for education and research; and military/defense satellites.

Loading next visibility...
Loading greatness...
RELAY 1 (A-15) details
Identifier
503, 1962-068A
Orbit
HEO
Last TLE update2 days ago
Origin
Flag of USGSFC (US)
ManufacturerRCA/East Windsor
Mission statusUnknown
MissionCivil Communications
Bus & MotorRELAY, Unknown motor
Mass78 kg wet, 78 kg dry
Launch date (UTC)
1962-12-13 (62 years ago)
Launch vehicle
THOR DELTA B
Launch site
Air Force Eastern Test Range (AFETR)
Object type
Payload
Rocket body
Debris
Radar Cross SectionMedium (>0.1 m² and <1 m²)

Expand to show TLE details & history

TLE from 2 days ago
0 RELAY 1 (A-15)
1 00503U 62068A   24250.02002993 -.00000027  00000-0  00000-0 0  9998
2 00503  47.5031 175.5649 2842809 151.5729 336.0645  7.78154776754948
Epoch: 2024-09-06T00:28Z
Definitive object data (Epoch: 2024-09-06T00:28:50.585Z)
Latitude44.46532°
Longitude-60.74013°
Altitude1,811.231 km
Speed7.772 km/s
True Right ascension19h 28m 16s
True Declination44° 18' 56"
Sunlit
Object was in daylight at TLE epoch
Predictive object data (real-time)
Latitude-47.10372°
Longitude101.18964°
Altitude5,370.282 km
Speed5.555 km/s
Apparent Right ascension03h 45m 04s
Apparent Declination-63° 33' 06"
Sunlit
Object is in daylight
Predictive observer data (real-time)
Local Sidereal Time09:43:24
Azimuth212.887° SW
Elevation-34.891°
Doppler factor1
Orbital elements
Apogee7,437.983 km
Perigee1,321.472 km
Semi-major axis10,757.864 km
Eccentricity0.2842809
Inclination47.5031°
RAAN175.5649°
Arg. of periapsis151.5729°
True anomaly317.0343°
Mean anomaly336.0645°
Eccentric anomaly327.25402°
Mean motion1.94515 °/min
BSTARUnknown
Period185.08 mins
No data available
Other satellites on launch #68 in the year 1962 (1962-12-13 UTC)

RELAY 1 (A-15) Visibility forecast

Observer location: 39.9160978°, -105.1181434

RELAY 1 (A-15) is not visible in the next 10 days
Span
Click to sort rows by Start time (UTC) header in descending order
Start Az.
Max El. time (UTC)
Max El. Az.
Max El.
End time (UTC)
End Az.